This is the latest recevied weather packets stored in our database for station/object K7AZM. If no packets are shown the sender has not sent any weather packets the latest 10 day(s).
| Time | Temp. | Humidity | Pressure | Rain* | Wind** | Luminosity | Snow |
|---|---|---|---|---|---|---|---|
| 1777687224 | 29.44° C | 16% | 1009.2 hPa | 0 mm | - | - | - |
| 1777685723 | 30.56° C | 17% | 1009.3 hPa | 0 mm | - | - | - |
| 1777684523 | 30.56° C | 18% | 1009.1 hPa | 0 mm | - | - | - |
| 1777683924 | 30.56° C | 18% | 1009.1 hPa | 0 mm | - | - | - |
| 1777683625 | 30.56° C | 18% | 1009.1 hPa | 0 mm | - | - | - |
| 1777683323 | 30.56° C | 18% | 1009.2 hPa | 0 mm | - | - | - |
| 1777682723 | 30.56° C | 18% | 1009.2 hPa | 0 mm | - | - | - |
| 1777680023 | 30.56° C | 17% | 1009.5 hPa | 0 mm | - | - | - |
| 1777676423 | 30° C | 19% | 1009.9 hPa | 0 mm | - | - | - |
| 1777675524 | 30° C | 20% | 1009.9 hPa | 0 mm | - | - | - |
| 1777674622 | 30° C | 19% | 1010.2 hPa | 0 mm | - | - | - |
| 1777672824 | 29.44° C | 20% | 1010.6 hPa | 0 mm | - | - | - |
| 1777671923 | 29.44° C | 21% | 1010.9 hPa | 0 mm | - | - | - |
| 1777669843 | 29.44° C | 21% | 1011.3 hPa | 0 mm | - | - | - |
| 1777665924 | 28.33° C | 24% | 1012 hPa | 0 mm | - | - | - |
| 1777663225 | 27.78° C | 26% | 1012.6 hPa | 0 mm | - | - | - |
| 1777662923 | 27.78° C | 26% | 1012.7 hPa | 0 mm | - | - | - |
| 1777660523 | 27.78° C | 27% | 1013.3 hPa | 0 mm | - | - | - |
| 1777659924 | 27.78° C | 26% | 1013.5 hPa | 0 mm | - | - | - |
| 1777655123 | 26.11° C | 29% | 1014 hPa | 0 mm | - | - | - |
| 1777653323 | 25° C | 32% | 1014.1 hPa | 0 mm | - | - | - |
| 1777652723 | 24.44° C | 34% | 1014.2 hPa | 0 mm | - | - | - |
| 1777647645 | 23.33° C | 37% | 1013.6 hPa | 0 mm | - | - | - |
| 1777646744 | 22.78° C | 38% | 1013.4 hPa | 0 mm | - | - | - |
| 1777644623 | 21.11° C | 39% | 1013.1 hPa | 0 mm | - | - | - |
* Rain latest hour (hover to see other rain measurements)
** Current wind speed in m/s (hover to see current wind gust speed)